This is the latest recevied weather packets stored in our database for station/object OH3FZQ-L1. If no packets are shown the sender has not sent any weather packets the latest 10 day(s).
| Time | Temp. | Humidity | Pressure | Rain* | Wind** | Luminosity | Snow |
|---|---|---|---|---|---|---|---|
| 1777750383 | 36.11° C | 32% | 998.8 hPa | - | - | - | - |
| 1777749483 | 36.67° C | 32% | 998.7 hPa | - | - | - | - |
| 1777748584 | 36.11° C | 33% | 998.9 hPa | - | - | - | - |
| 1777747682 | 35.56° C | 34% | 998.7 hPa | - | - | - | - |
| 1777746782 | 34.44° C | 35% | 998.8 hPa | - | - | - | - |
| 1777745882 | 32.78° C | 38% | 998.7 hPa | - | - | - | - |
| 1777744982 | 31.67° C | 40% | 998.9 hPa | - | - | - | - |
| 1777744082 | 31.67° C | 41% | 998.7 hPa | - | - | - | - |
| 1777743184 | 28.89° C | 47% | 998.8 hPa | - | - | - | - |
| 1777742284 | 24.44° C | 46% | 998.8 hPa | - | - | - | - |
| 1777741384 | 24.44° C | 47% | 998.9 hPa | - | - | - | - |
| 1777740484 | 24.44° C | 48% | 999 hPa | - | - | - | - |
| 1777739584 | 23.89° C | 45% | 998.9 hPa | - | - | - | - |
| 1777738683 | 23.89° C | 45% | 999.1 hPa | - | - | - | - |
| 1777737783 | 23.89° C | 46% | 999.1 hPa | - | - | - | - |
| 1777735983 | 23.33° C | 44% | 999.4 hPa | - | - | - | - |
| 1777735083 | 23.33° C | 43% | 999.5 hPa | - | - | - | - |
| 1777734183 | 23.33° C | 40% | 999.5 hPa | - | - | - | - |
| 1777733283 | 23.33° C | 39% | 999.5 hPa | - | - | - | - |
| 1777732383 | 23.33° C | 46% | 999.5 hPa | - | - | - | - |
| 1777731483 | 23.33° C | 47% | 999.7 hPa | - | - | - | - |
| 1777730583 | 23.33° C | 47% | 999.7 hPa | - | - | - | - |
| 1777729682 | 23.33° C | 47% | 999.8 hPa | - | - | - | - |
| 1777728782 | 22.78° C | 46% | 999.7 hPa | - | - | - | - |
| 1777727882 | 22.78° C | 47% | 999.6 hPa | - | - | - | - |
* Rain since midnight (hover to see other rain measurements)
** Current wind speed in m/s (hover to see current wind gust speed)